| time (UTC) | temp F | wind direction | speed MPH | gust MPH | rain 1hr in | rain 24hr in | rain mn in | humidity % | barometer mb |
| 20260903070035 | 64 | 185 | 2.0 | 8.0 | 0.00 | 0.05 | 0.00 | 89 | 1014.2 |
| 20260903064534 | 64 | 235 | 3.0 | 7.0 | 0.00 | 0.06 | 0.00 | 89 | 1013.9 |
| 20260903063034 | 64 | 209 | 4.0 | 12.0 | 0.00 | 0.06 | 0.00 | 89 | 1013.9 |
| 20260903061534 | 64 | 215 | 5.0 | 11.0 | 0.00 | 0.06 | 0.00 | 89 | 1013.7 |
| 20260903060029 | 64 | 198 | 5.0 | 12.0 | 0.00 | 0.06 | 0.00 | 89 | 1013.4 |
| 20260903054533 | 63 | 235 | 4.0 | 9.0 | 0.00 | 0.06 | 0.00 | 90 | 1013.5 |
| 20260903053026 | 63 | 222 | 3.0 | 8.0 | 0.00 | 0.06 | 0.00 | 90 | 1013.3 |
| 20260903051526 | 64 | 185 | 3.0 | 9.0 | 0.00 | 0.06 | 0.00 | 90 | 1013.3 |
| 20260903050027 | 64 | 211 | 4.0 | 9.0 | 0.00 | 0.06 | 0.00 | 90 | 1013.5 |
| 20260903044526 | 64 | 224 | 3.0 | 8.0 | 0.00 | 0.06 | 0.00 | 90 | 1013.5 |
| 20260903043027 | 64 | 199 | 5.0 | 9.0 | 0.00 | 0.06 | 0.00 | 91 | 1013.4 |
| 20260903041522 | 63 | 248 | 5.0 | 10.0 | 0.00 | 0.06 | 0.00 | 92 | 1013.4 |
| 20260903040019 | 64 | 184 | 4.0 | 10.0 | 0.00 | 0.06 | 0.00 | 94 | 1013.1 |
| 20260903034518 | 64 | 192 | 4.0 | 9.0 | 0.00 | 0.06 | 0.00 | 94 | 1012.9 |
| 20260903033029 | 65 | 209 | 4.0 | 10.0 | 0.00 | 0.06 | 0.00 | 94 | 1013.4 |
| 20260903031518 | 65 | 257 | 3.0 | 9.0 | 0.00 | 0.06 | 0.00 | 93 | 1013.2 |
| 20260903030016 | 65 | 213 | 4.0 | 9.0 | 0.00 | 0.06 | 0.00 | 93 | 1012.9 |
| 20260903024515 | 64 | 229 | 3.0 | 8.0 | 0.00 | 0.06 | 0.00 | 92 | 1013.1 |
| 20260903023014 | 65 | 213 | 3.0 | 7.0 | 0.00 | 0.06 | 0.00 | 92 | 1012.8 |
| 20260903021514 | 65 | 211 | 4.0 | 11.0 | 0.00 | 0.06 | 0.00 | 91 | 1013.3 |
| 20260903020013 | 65 | 197 | 5.0 | 13.0 | 0.00 | 0.06 | 0.00 | 90 | 1013.1 |
| 20260903014511 | 65 | 229 | 6.0 | 12.0 | 0.00 | 0.06 | 0.00 | 90 | 1013.1 |
| 20260903013010 | 65 | 263 | 7.0 | 15.0 | 0.00 | 0.06 | 0.00 | 91 | 1013.2 |
| 20260903011507 | 65 | 252 | 7.0 | 16.0 | 0.00 | 0.06 | 0.00 | 92 | 1013.0 |
| 20260903010004 | 64 | 230 | 5.0 | 11.0 | 0.00 | 0.06 | 0.00 | 93 | 1013.1 |
| 20260903004507 | 64 | 226 | 4.0 | 8.0 | 0.00 | 0.06 | 0.00 | 95 | 1013.1 |
| 20260903003101 | 64 | 215 | 4.0 | 9.0 | 0.00 | 0.06 | 0.00 | 95 | 1013.3 |
| 20260903001559 | 64 | 217 | 4.0 | 9.0 | 0.00 | 0.06 | 0.00 | 95 | 1013.2 |
| 20260903000059 | 64 | 200 | 4.0 | 9.0 | 0.00 | 0.06 | 0.00 | 94 | 1013.2 |
| 20260902234600 | 65 | 265 | 4.0 | 9.0 | 0.00 | 0.06 | 0.00 | 94 | 1013.3 |
| 20260902233054 | 65 | 219 | 4.0 | 11.0 | 0.00 | 0.06 | 0.00 | 94 | 1013.4 |
| 20260902231552 | 65 | 175 | 5.0 | 12.0 | 0.00 | 0.06 | 0.00 | 93 | 1013.3 |
| 20260902230051 | 65 | 211 | 5.0 | 10.0 | 0.00 | 0.06 | 0.00 | 93 | 1013.4 |
| 20260902224552 | 65 | 235 | 4.0 | 10.0 | 0.00 | 0.06 | 0.06 | 93 | 1013.3 |
| 20260902223048 | 65 | 244 | 4.0 | 10.0 | 0.00 | 0.06 | 0.06 | 93 | 1013.2 |
| 20260902221552 | 65 | 209 | 5.0 | 11.0 | 0.00 | 0.06 | 0.06 | 93 | 1013.3 |
| 20260902220047 | 65 | 199 | 4.0 | 11.0 | 0.00 | 0.06 | 0.06 | 92 | 1013.4 |
| 20260902214548 | 65 | 189 | 3.0 | 9.0 | 0.00 | 0.06 | 0.06 | 92 | 1013.3 |
| 20260902213045 | 65 | 222 | 5.0 | 9.0 | 0.00 | 0.06 | 0.06 | 92 | 1013.3 |
| 20260902211545 | 65 | 213 | 2.0 | 8.0 | 0.00 | 0.06 | 0.06 | 92 | 1013.0 |
| 20260902210055 | 65 | 234 | 5.0 | 10.0 | 0.00 | 0.06 | 0.06 | 92 | 1013.4 |
| 20260902204545 | 65 | 168 | 3.0 | 9.0 | 0.00 | 0.06 | 0.06 | 92 | 1013.1 |
| 20260902203044 | 65 | 205 | 2.0 | 6.0 | 0.00 | 0.06 | 0.06 | 92 | 1013.1 |
| 20260902201545 | 65 | 161 | 3.0 | 6.0 | 0.00 | 0.06 | 0.06 | 91 | 1012.9 |
| 20260902200043 | 65 | 165 | 2.0 | 5.0 | 0.00 | 0.06 | 0.06 | 91 | 1013.1 |
| 20260902194542 | 65 | 186 | 3.0 | 7.0 | 0.00 | 0.06 | 0.06 | 91 | 1013.0 |
| 20260902193041 | 66 | 185 | 2.0 | 7.0 | 0.00 | 0.06 | 0.06 | 91 | 1012.9 |
| 20260902191541 | 66 | 198 | 4.0 | 8.0 | 0.00 | 0.06 | 0.06 | 91 | 1012.8 |
| 20260902190040 | 66 | 218 | 3.0 | 8.0 | 0.00 | 0.06 | 0.06 | 90 | 1013.0 |
| 20260902184539 | 67 | 154 | 4.0 | 7.0 | 0.00 | 0.06 | 0.06 | 90 | 1012.7 |
| 20260902183038 | 67 | 198 | 3.0 | 12.0 | 0.00 | 0.06 | 0.06 | 90 | 1012.9 |
| 20260902181538 | 67 | 237 | 3.0 | 10.0 | 0.00 | 0.06 | 0.06 | 90 | 1012.7 |
| 20260902180041 | 67 | 196 | 5.0 | 13.0 | 0.00 | 0.06 | 0.06 | 90 | 1012.6 |
| 20260902174536 | 68 | 186 | 5.0 | 14.0 | 0.00 | 0.06 | 0.06 | 90 | 1012.6 |
| 20260902173038 | 67 | 171 | 5.0 | 14.0 | 0.00 | 0.06 | 0.06 | 90 | 1012.4 |
| 20260902171534 | 68 | 202 | 5.0 | 11.0 | 0.00 | 0.06 | 0.06 | 91 | 1012.1 |
| 20260902170035 | 67 | 173 | 6.0 | 12.0 | 0.00 | 0.06 | 0.06 | 91 | 1012.3 |
| 20260902164534 | 67 | 179 | 7.0 | 13.0 | 0.00 | 0.06 | 0.06 | 92 | 1012.4 |
| 20260902163033 | 67 | 201 | 5.0 | 13.0 | 0.00 | 0.06 | 0.06 | 92 | 1012.3 |
| 20260902161532 | 68 | 211 | 6.0 | 15.0 | 0.00 | 0.06 | 0.06 | 91 | 1012.5 |
| 20260902160032 | 68 | 205 | 5.0 | 14.0 | 0.00 | 0.06 | 0.06 | 91 | 1012.4 |
| 20260902154530 | 68 | 192 | 8.0 | 16.0 | 0.00 | 0.06 | 0.06 | 93 | 1012.4 |
| 20260902153029 | 68 | 210 | 7.0 | 19.0 | 0.00 | 0.06 | 0.06 | 93 | 1012.2 |
| 20260902151527 | 68 | 259 | 8.0 | 12.0 | 0.00 | 0.06 | 0.06 | 96 | 1012.3 |
| 20260902150024 | 67 | 206 | 9.0 | 14.0 | 0.00 | 0.06 | 0.06 | 98 | 1012.4 |
| 20260902144532 | 66 | 222 | 8.0 | 15.0 | 0.00 | 0.06 | 0.06 | 98 | 1012.6 |
| 20260902143020 | 66 | 185 | 7.0 | 15.0 | 0.00 | 0.06 | 0.06 | 98 | 1012.7 |
| 20260902141519 | 66 | 171 | 8.0 | 17.0 | 0.01 | 0.06 | 0.06 | 98 | 1012.6 |
| 20260902140015 | 65 | 149 | 8.0 | 13.0 | 0.02 | 0.06 | 0.06 | 98 | 1012.7 |
| 20260902134512 | 65 | 207 | 7.0 | 14.0 | 0.02 | 0.06 | 0.06 | 98 | 1012.8 |
| 20260902133010 | 64 | 172 | 7.0 | 14.0 | 0.02 | 0.06 | 0.06 | 98 | 1013.0 |
| 20260902131509 | 64 | 194 | 6.0 | 12.0 | 0.02 | 0.05 | 0.05 | 98 | 1013.2 |
| 20260902130005 | 64 | 173 | 6.0 | 12.0 | 0.01 | 0.04 | 0.04 | 98 | 1013.4 |
| 20260902124504 | 63 | 182 | 6.0 | 14.0 | 0.00 | 0.03 | 0.03 | 97 | 1013.2 |
| 20260902123001 | 63 | 175 | 6.0 | 10.0 | 0.02 | 0.03 | 0.03 | 97 | 1013.6 |
| 20260902121501 | 63 | 164 | 7.0 | 12.0 | 0.02 | 0.03 | 0.03 | 97 | 1013.7 |
| 20260902120100 | 63 | 184 | 6.0 | 12.0 | 0.02 | 0.03 | 0.03 | 97 | 1013.6 |
| 20260902114604 | 63 | 168 | 6.0 | 11.0 | 0.02 | 0.03 | 0.03 | 96 | 1014.1 |
| 20260902113058 | 63 | 150 | 11.0 | 18.0 | 0.00 | 0.02 | 0.02 | 96 | 1014.1 |
| 20260902111553 | 63 | 181 | 7.0 | 10.0 | 0.00 | 0.02 | 0.02 | 96 | 1014.4 |
| 20260902110051 | 62 | 151 | 5.0 | 8.0 | 0.00 | 0.02 | 0.02 | 97 | 1014.7 |
| 20260902104555 | 62 | 165 | 7.0 | 12.0 | 0.01 | 0.02 | 0.02 | 96 | 1014.9 |
| 20260902103049 | 62 | 163 | 6.0 | 10.0 | 0.01 | 0.02 | 0.02 | 96 | 1015.1 |
| 20260902101546 | 62 | 169 | 4.0 | 10.0 | 0.01 | 0.02 | 0.02 | 96 | 1015.2 |
| 20260902094543 | 61 | 192 | 5.0 | 8.0 | 0.00 | 0.01 | 0.01 | 94 | 1015.4 |
| 20260902093042 | 61 | 165 | 4.0 | 8.0 | 0.00 | 0.01 | 0.01 | 94 | 1015.4 |
| 20260902091559 | 61 | 178 | 3.0 | 7.0 | 0.00 | 0.01 | 0.01 | 95 | 1015.5 |
| 20260902090039 | 61 | 169 | 5.0 | 9.0 | 0.00 | 0.01 | 0.01 | 96 | 1015.8 |
| 20260902084541 | 61 | 165 | 5.0 | 8.0 | 0.00 | 0.01 | 0.01 | 96 | 1015.7 |
| 20260902083036 | 60 | 144 | 2.0 | 8.0 | 0.00 | 0.01 | 0.01 | 96 | 1015.8 |
| 20260902081536 | 60 | 134 | 2.0 | 9.0 | 0.00 | 0.01 | 0.01 | 96 | 1016.0 |
| 20260902080045 | 60 | 173 | 4.0 | 6.0 | 0.00 | 0.01 | 0.01 | 96 | 1016.1 |
| 20260902074533 | 60 | 176 | 3.0 | 7.0 | 0.00 | 0.01 | 0.01 | 96 | 1016.2 |
| 20260902073032 | 60 | 165 | 3.0 | 7.0 | 0.00 | 0.01 | 0.01 | 96 | 1016.2 |
| 20260902071549 | 60 | 171 | 2.0 | 6.0 | 0.00 | 0.01 | 0.01 | 96 | 1016.1 |